sat.trackr.live / text

‹ back to catalog

STARLINK-32847

NORAD 62811 · 2025-018F

PAYLOAD ACTIVE UNKNOWN

§ Identity

Operator
Country
US
Launch date
2025-01-24
Launch site
AFWTR
Launch vehicle
Mass (kg)
RCS (m²)

Purposes: comms

External: N2YO · Heavens-Above · Gunter

§ Orbital elements

Epoch: 2026-09-21T20:09:58.558176Z

Period
93.85 min
Inclination
53.1592°
Eccentricity
0.0001328
Mean motion
15.34418688 rev/d
Perigee alt
461.7 km
Apogee alt
463.6 km
Semi-major
6,840.8 km
B*
2.9056e-4
RAAN
117.5254°
Arg perigee
76.7524°
Mean anomaly
283.3627°
Rev number
9,321

§ Raw data

STARLINK-328471 62811U 25018F   26264.84026109  .00009459  00000+0  29056-3 0  99952 62811  53.1592 117.5254 0001328  76.7524 283.3627 15.34418688 93219

JSON: /api/v1/satellites/62811 · /tle

For live sub-satellite position, see the globe view (requires WebGL).

§ Visibility from observer

Set your observer location to see the next 7 days of passes ≥ 10°. The values pass through the URL so the page stays shareable.

No JS? Fill the form by hand. The geolocation button needs JavaScript.